Wind_Speed
13 10 5 8 9 11 10 11 11 14 16 19 20 20 21 21 21 20 20 20 22 24 23 27 29 24 28 29 28 28 25 25 21 23 25 23 20 17 21 21 22 23 24
12 12 7 9 12 13 14 15 17 19 19 22 23 24 24 24 24 23 22 23 23 23 24 27 25 25 28 28 30 31 31 29 25 20 22 22 24 24 25 26 24 22 23
10 7 11 11 12 14 16 18 19 22 22 24 25 26 27 27 28 27 26 25 25 27 27 27 26 25 27 28 29 30 31 32 33 29 28 30 31 28 26 23 21 23 21
6 4 5 10 13 16 18 20 21 22 25 26 27 29 30 31 31 31 29 29 28 29 31 29 27 27 28 29 29 30 33 35 33 28 26 25 25 24 25 24 22 22 22
5 7 9 10 12 14 15 18 20 22 25 27 29 30 32 33 34 32 30 30 29 28 28 28 30 32 33 30 30 30 29 30 30 31 28 28 26 25 23 24 23 22 22
11 11 11 13 15 17 18 20 23 26 27 29 31 32 35 35 36 39 40 35 34 34 33 32 32 34 37 42 41 38 40 33 30 30 30 28 29 25 24 23 23 20 9
6 7 9 11 14 16 17 21 25 28 28 29 32 33 36 36 37 38 38 38 37 37 38 38 36 36 35 34 34 37 40 42 47 42 33 32 30 29 24 20 20 20 21
8 9 12 14 17 20 23 27 30 32 31 33 35 35 37 38 38 39 38 38 40 43 44 41 40 39 38 35 35 36 35 35 37 40 42 46 38 29 26 24 21 21 23
10 11 13 14 17 20 23 24 27 30 34 36 36 39 40 43 41 41 39 36 39 42 42 44 44 44 42 41 40 38 38 42 37 35 37 36 35 37 32 27 27 23 23
14 14 16 18 20 21 22 24 28 31 33 36 41 41 43 46 43 41 40 39 39 40 42 44 46 48 45 41 41 36 36 38 34 34 30 30 36 37 33 33 29 25 24
16 18 19 21 23 22 22 24 28 32 32 36 38 38 44 44 45 43 43 42 41 39 39 38 38 41 44 49 52 45 42 36 32 30 31 29 29 28 28 27 31 31 28
17 19 21 22 23 23 24 24 28 33 31 34 37 39 38 40 41 42 42 46 46 42 42 40 39 39 38 36 46 48 48 44 36 29 28 28 29 29 29 28 27 30 31
18 21 21 21 24 21 21 19 26 27 30 32 34 36 39 37 36 38 41 43 45 47 44 43 43 44 50 48 41 33 30 31 30 27 27 27 27 30 29 18 18 20 25
19 22 21 22 23 16 18 20 23 26 23 22 29 34 39 40 36 32 30 31 34 40 43 48 47 41 38 42 39 32 33 29 28 25 25 25 27 28 25 21 19 18 18
20 20 23 21 22 18 17 21 21 25 25 24 25 28 40 41 42 50 44 35 29 29 22 13 10 16 20 29 30 32 32 25 26 24 23 23 22 25 21 19 19 18 16
20 20 20 22 23 22 19 23 24 28 23 30 31 37 46 55 60 53 48 38 41 44 34 21 15 17 21 23 24 26 27 28 27 26 26 22 24 21 18 18 17 14 13
19 20 21 23 21 24 24 23 23 27 29 29 27 36 46 65 65 56 42 21 24 33 26 23 19 19 24 25 25 23 24 27 25 23 20 20 19 18 17 13 11 2 3
19 22 24 20 20 23 21 21 21 24 25 29 26 30 40 59 61 49 45 23 5 10 16 22 23 23 25 27 26 21 18 19 20 20 21 20 18 15 12 9 6 6 7
21 22 20 23 23 19 25 18 21 23 22 27 23 24 30 45 48 46 45 38 27 17 13 18 21 22 26 28 24 19 20 19 21 20 20 14 19 21 17 14 13 14 14
20 23 24 22 24 21 22 24 19 19 17 24 18 17 26 28 42 44 37 41 35 32 34 32 28 22 23 24 27 19 21 19 15 20 19 17 19 19 17 16 15 15 13
21 22 23 23 23 21 22 21 19 19 16 17 18 12 13 17 22 31 34 33 37 39 44 41 36 37 35 35 26 31 32 28 19 30 23 21 17 18 15 9 7 7 13
21 25 20 22 26 21 24 26 17 17 17 15 14 6 7 12 13 19 24 29 33 38 35 33 31 44 40 40 40 33 36 22 12 18 21 8 7 11 9 4 11 12 15
22 24 19 25 21 26 22 22 24 20 22 20 12 8 1 5 5 7 13 15 21 21 26 26 31 37 35 33 32 30 25 14 19 14 5 7 11 1 17 23 20 19 15
24 25 22 22 22 21 20 23 21 19 18 18 19 18 13 2 1 2 3 6 10 14 15 17 22 20 17 21 22 22 21 20 23 23 19 18 19 13 14 16 10 10 14
27 27 27 21 16 16 17 17 18 17 16 16 15 17 16 18 16 3 3 3 4 7 10 12 14 15 16 16 20 20 19 19 18 17 15 14 12 14 12 11 12 8 7
25 25 20 21 20 16 14 16 15 14 13 14 13 14 15 14 15 13 14 14 6 2 3 5 7 8 8 11 15 16 19 20 17 15 13 11 11 12 12 10 10 11 6
Wind_Direction
65 58 26 338 336 324 319 328 319 324 307 298 294 296 295 296 296 295 289 286 281 278 273 270 269 266 262 266 274 273 258 248 263 266 268 268 265 260 266 268 273 272 273
38 36 336 343 341 329 333 329 321 313 305 299 301 297 291 288 285 284 284 285 284 278 275 272 271 268 262 259 261 269 276 277 284 284 273 271 270 269 266 258 255 266 270
44 29 357 344 335 330 331 322 319 311 305 301 297 295 293 291 285 280 276 275 275 275 277 276 270 267 266 259 256 256 263 260 252 257 265 264 259 256 258 250 249 253 263
29 27 6 336 334 336 331 321 316 314 309 305 300 297 294 290 283 280 277 272 270 270 269 266 271 268 262 263 259 257 258 263 268 267 257 258 264 268 265 263 260 256 254
23 20 10 342 340 331 317 318 316 313 303 299 296 292 289 287 281 281 279 277 270 270 265 265 268 268 268 267 266 260 257 257 256 261 264 258 255 252 252 254 254 261 262
19 12 359 351 343 334 329 326 320 310 305 301 297 293 289 284 281 283 287 287 285 275 273 269 267 267 267 269 268 267 259 253 255 252 255 260 251 259 262 267 272 272 283
19 12 1 354 351 345 335 327 324 314 308 306 301 294 288 286 283 281 280 284 281 275 270 268 268 265 265 265 268 266 268 260 254 252 254 257 270 277 290 293 280 283 283
3 350 346 344 343 338 331 326 324 322 312 309 302 297 295 290 286 282 279 274 270 269 267 267 266 266 262 260 263 266 264 261 253 252 249 255 253 262 260 270 279 282 274
334 331 326 320 318 322 328 328 326 322 316 310 307 302 295 289 287 284 280 274 270 267 265 261 259 258 258 257 257 259 262 262 266 261 254 250 254 251 252 264 265 257 254
316 313 312 310 310 313 315 318 323 321 321 319 311 304 299 291 285 278 274 268 266 264 264 264 260 256 254 252 252 254 256 256 258 258 257 256 243 251 251 247 247 251 253
310 307 303 304 305 303 301 310 318 318 321 320 312 306 302 295 285 276 270 264 262 264 264 265 264 260 259 255 250 247 249 254 259 257 255 252 246 240 236 242 240 240 245
307 305 300 299 301 307 304 310 318 317 318 322 321 316 311 302 294 280 272 265 260 259 259 262 268 270 268 257 253 251 251 247 251 250 248 248 241 247 241 238 238 239 244
304 305 305 305 298 295 310 319 320 337 330 329 329 325 324 315 309 292 273 266 262 256 258 260 263 266 266 272 280 275 262 249 247 239 237 240 237 247 253 237 231 247 248
305 310 307 297 291 315 309 331 326 333 325 324 339 339 331 327 319 315 295 271 260 257 258 257 255 255 258 262 266 266 256 244 242 237 233 233 238 244 244 240 248 236 244
303 307 298 308 318 326 327 327 312 325 318 310 313 336 340 330 321 316 309 287 257 254 254 296 278 282 286 249 249 243 244 233 236 233 227 228 225 234 236 238 244 241 236
302 301 317 309 315 317 324 319 309 314 308 326 329 326 336 338 339 334 325 296 253 244 255 264 271 276 280 282 239 242 239 236 230 227 219 214 216 214 224 225 227 229 240
297 299 303 306 322 327 326 321 322 317 321 327 334 347 346 350 348 345 343 303 256 238 234 244 252 259 270 276 273 242 240 226 214 204 204 210 218 218 210 221 203 180 151
300 289 286 313 322 305 309 309 310 311 309 317 330 342 352 354 351 355 9 8 11 251 251 244 245 250 249 253 265 244 232 213 198 190 186 188 187 166 129 121 137 153 134
292 298 308 307 305 308 298 312 309 317 319 319 334 332 350 3 357 5 16 24 14 1 259 244 242 246 255 254 241 213 195 177 164 155 162 158 139 125 127 124 120 121 117
289 295 297 303 312 316 305 322 316 311 311 313 331 339 340 4 13 4 8 20 20 27 26 22 20 52 69 70 67 61 76 69 85 103 100 121 131 131 126 133 134 138 118
301 305 311 306 314 320 317 312 323 305 313 313 342 340 352 4 13 15 5 13 23 28 28 25 21 39 45 49 50 68 57 54 46 66 69 59 61 70 91 107 102 100 128
304 299 312 310 304 318 321 319 303 328 318 344 344 340 12 24 11 19 9 12 21 32 34 37 30 49 42 49 49 43 67 55 70 85 81 98 115 101 106 149 208 168 154
299 297 300 298 308 316 315 324 323 338 341 341 355 6 59 12 22 8 18 13 22 23 44 41 46 51 49 49 50 50 56 43 61 71 135 160 108 278 214 218 208 193 181
288 295 299 293 301 299 310 319 333 335 341 346 351 358 7 128 35 331 3 9 20 28 36 55 64 66 65 64 59 49 47 51 55 43 44 35 31 40 50 37 49 73 132
305 299 296 302 298 304 308 319 330 332 341 346 354 354 356 1 4 81 87 90 64 45 49 49 49 56 64 66 62 57 51 45 43 50 35 35 36 28 17 46 4 59 37
295 292 312 310 307 311 320 321 317 325 339 336 344 357 349 1 359 6 5 7 346 73 94 75 79 72 58 56 58 50 45 46 52 46 35 27 21 27 6 353 7 341 359
Height
842 844 847 849 847 849 849 845 844 840 841 843 841 837 834 831 829 826 823 821 818 816 814 812 811 811 810 807 805 801 798 798 792 788 788 789 788 788 789 789 789 788 787
846 844 852 848 846 847 845 843 842 842 841 840 835 832 829 827 824 822 818 816 813 811 809 806 804 804 803 802 801 798 794 791 789 783 783 783 783 783 782 780 780 779 778
840 846 850 851 851 848 843 843 840 840 837 834 831 827 824 821 819 816 813 810 808 806 802 800 797 796 794 794 793 792 789 786 783 780 778 779 777 775 773 772 773 772 772
846 846 847 850 848 844 840 840 838 834 832 829 826 822 819 816 813 809 805 803 800 797 796 792 790 788 785 786 784 783 782 780 777 775 769 767 768 768 769 767 765 764 763
847 845 843 847 844 842 843 839 836 832 831 827 822 817 814 810 804 800 797 793 791 787 785 783 782 780 778 776 776 773 773 773 771 769 765 761 759 760 759 757 755 755 753
841 842 844 844 842 840 837 834 832 829 825 820 814 810 805 801 796 793 790 788 785 780 777 774 772 771 769 765 764 763 764 764 762 763 759 753 752 751 752 752 750 748 748
844 844 843 842 840 837 835 831 827 822 817 812 808 804 798 792 789 786 785 781 776 772 769 766 763 760 758 756 754 752 751 751 750 752 752 748 748 748 748 748 747 747 747
841 841 839 837 834 832 829 825 821 816 811 806 801 796 789 783 780 777 775 772 767 762 759 755 752 750 749 748 746 743 740 738 737 738 740 737 741 743 744 745 747 745 745
839 837 836 834 832 828 825 821 817 811 805 798 792 786 780 772 769 766 763 759 753 747 745 743 739 736 734 736 737 734 731 728 728 727 728 728 730 733 737 740 739 738 734
835 833 832 829 825 822 820 815 811 806 799 792 782 777 769 759 755 752 752 748 739 736 732 727 724 722 723 724 724 724 720 716 719 719 718 719 722 723 726 728 730 729 726
830 828 825 822 819 816 813 810 806 801 793 787 777 769 758 749 738 737 736 733 728 722 716 712 709 708 707 707 709 711 706 710 708 710 710 711 713 713 714 715 716 718 717
827 823 820 818 814 810 806 803 800 793 786 780 771 759 750 738 728 722 719 716 714 710 703 702 699 698 697 695 695 695 695 699 699 699 701 701 704 704 704 703 705 706 707
822 818 814 811 806 803 799 796 793 788 784 777 767 754 742 730 720 710 704 702 699 695 692 690 690 689 685 682 682 685 687 688 687 689 690 692 693 695 696 696 698 699 698
816 812 809 804 798 795 793 789 788 783 780 772 764 752 738 724 713 704 694 688 685 682 679 677 676 678 678 674 675 676 676 676 677 678 681 682 686 688 688 689 690 692 693
812 808 802 795 792 789 786 785 783 779 773 767 758 749 737 721 708 696 684 677 673 671 668 667 668 668 666 663 663 663 664 664 667 669 671 674 675 679 680 682 684 686 687
808 802 797 793 786 782 779 778 775 770 765 761 756 746 734 719 697 679 664 653 651 656 660 661 662 663 661 657 653 653 654 655 657 660 661 664 667 670 673 677 678 679 680
805 800 793 788 782 780 777 772 768 763 760 754 749 739 727 711 688 668 647 633 634 644 647 649 651 654 654 651 646 644 644 644 647 649 653 657 662 664 667 670 671 673 675
799 792 787 781 779 775 771 767 764 757 751 744 741 734 724 709 689 671 651 640 640 643 645 644 643 644 644 643 642 639 638 640 642 643 648 652 656 660 662 666 670 674 676
792 785 782 777 772 768 765 759 755 750 749 742 736 729 722 709 697 680 666 656 651 644 639 639 637 635 635 634 631 633 634 637 638 640 646 648 652 655 663 667 672 675 675
786 781 777 772 767 762 758 755 750 746 741 736 730 726 720 713 697 688 680 671 663 655 648 642 636 631 630 631 633 636 637 637 642 642 646 654 655 658 661 669 672 675 677
779 774 770 766 761 757 753 748 745 741 736 731 727 724 721 717 711 703 693 685 671 666 662 656 650 642 641 642 645 644 641 650 651 641 657 657 660 659 664 669 674 672 675
776 771 766 764 759 753 748 744 739 734 731 727 724 721 719 716 714 710 701 694 688 683 681 677 671 659 658 658 656 659 653 666 672 667 661 670 669 666 670 675 680 677 677
769 765 761 757 753 749 744 740 734 731 727 723 720 718 718 716 714 711 707 702 698 695 691 688 683 675 674 677 675 673 676 681 672 670 670 673 667 670 675 680 680 673 673
763 759 754 751 749 745 740 737 732 730 727 723 720 717 715 713 712 711 709 706 703 700 697 694 691 692 695 693 692 689 684 680 675 675 675 675 672 672 674 675 673 673 677
757 752 748 743 741 737 736 732 731 729 726 724 721 719 716 713 710 709 709 707 705 704 702 701 700 700 701 701 698 695 691 685 681 680 682 681 682 682 681 679 678 676 676
753 746 742 740 736 734 732 732 730 728 727 724 722 721 718 715 713 710 709 708 706 704 703 703 703 705 705 704 701 698 694 691 690 689 688 687 687 687 688 684 683 681 680